Regional Weather Roundup
Issued by NWS Newport/Morehead, NC

Current Version | Previous Version | Text Only | Print | Product List | Glossary On
Versions: 1 2 3 4 5 6 7 8 9 10 11 12 13 14 15 16 17 18 19 20 21 22 23 24 25 26 27 28 29 30 31 32 33 34 35 36 37 38 39 40 41 42 43 44 45 46 47 48 49 50
036
ASUS42 KMHX 261014
RWRMHX
WEATHER ROUNDUP FOR EASTERN NORTH CAROLINA
NATIONAL WEATHER SERVICE NEWPORT/MOREHEAD CITY NC
600 AM EDT SAT MAY 26 2018

NOTE: "FAIR" INDICATES FEW OR NO CLOUDS BELOW 12,000 FEET
WITH NO SIGNIFICANT WEATHER AND/OR OBSTRUCTIONS TO VISIBILITY

NCZ015>017-031-032-045>047-102-103-261100-
NORTH COAST

CITY           SKY/WX    TMP DP  RH WIND       PRES   REMARKS
EDENTON        CLOUDY    74  71  91 SW8       30.00R
ELIZABETH CITY FAIR      72  71  97 SW8       29.98R
KITTY HAWK     FAIR      72  70  93 SW5       29.98S
MANTEO         FAIR      72  70  93 SW9       30.00R

$$

NCZ045>047-081-094-103-104-261100-
CENTRAL COAST

CITY           SKY/WX    TMP DP  RH WIND       PRES   REMARKS
FRISCO         FAIR      73  72  96 SW6       30.00S

$$

NCZ095-097-098-100-101-261100-
SOUTHERN COAST

CITY           SKY/WX    TMP DP  RH WIND       PRES   REMARKS
BEAUFORT       FAIR      74  73  97 SW8       30.01R
CEDAR ISLAND   NOT AVBL
JACKSONVILLE   FAIR      71  71 100 CALM      29.99S
PINEY ISLAND   NOT AVBL
WILMINGTON     FAIR      70  68  93 CALM      30.00R


$$

NCZ011>013-027>030-043-044-078>080-089-090>093-098-261100-
COASTAL PLAIN

CITY           SKY/WX    TMP DP  RH WIND       PRES   REMARKS
AHOSKIE        FAIR      68  68 100 CALM      29.98R
CLINTON        CLOUDY    70  70 100 SW5       30.00R
ELIZABETHTOWN  FOG       70  70  99 S5        30.00R VSB 1/2
GOLDSBORO      CLOUDY    72  70  94 SW5       29.98R
GREENVILLE     CLOUDY    72  70  94 SW6       30.01R
HAVELOCK       NOT AVBL
KENANSVILLE    MOCLDY    66  66 100 CALM      29.99S FOG
KINSTON        NOT AVBL
NEW BERN       FAIR      69  69 100 S3        30.01R
RICHLANDS      FOG       67  66  97 S3        30.01R VSB 1/4
ROCKY MOUNT    FAIR      69  68  96 S3        29.98S
WASHINGTON     CLOUDY    70  69  97 CALM      30.00R
WHITEVILLE     MOCLDY    69  68  97 CALM      29.99S

$$

AMZ130-135-150-152-154-156-158-170-250-252-270-ANZ085-086-088-633-658-670-261100-
MARINE OBSERVATIONS

STATION/POSITION TIME  TEMP    WIND        PRES    WAVE   SWELL
                       AIR SEA DIR/SP/G            HT/PER HT/PER
                 (UTC) (F)     (DEG/KT/KT) (MB)    (FT/S) (FT/S)
CHESAPEAKE LIGHT NOT AVBL
64 E VA BEACH    0950   71 70  210/ 10/ 10 1015.5    3/ 9   2/ 9
DUCK             0936   74 61  230/ 12/ 16 1014.9
2 E DUCK         1000      65                N/A     2/ 9
OREGON INLET     0936   75 79  230/ 13/ 15 1015.4
13E OREGON INLT  0948      70                N/A     2/ 4   2/ 8
HATTERAS CG      0936   74 77  230/  6/  9 1015.6
DIAMOND BUOY     1000   77 78  240/ 12/ 14 1016.4
CAPE LOOKOUT     1000          220/  6/  7 1016.4
BEAUFORT LAB     0936   75 78  220/  4/  7 1016.0
30 SE NEW RVR IN 0908   76 76  210/  8/ 10 1015.8
30 SE NEW RVR IN 1000      76                N/A     3/ 8
27 SE WRIGHTSVLE 0908   75 76  210/  6/ 10 1015.8
5 SE WRIGHTSVLE  NOT AVBL
225 S CAPE HAT   1000      79  200/  4/  6 1017.2
41 SE CHARLESTON 0950      76  180/  6/  6 1015.5    3/ 9   3/ 9

$$




USA.gov is the U.S. government's official web portal to all federal, state and local government web resources and services.